Radiation Dose at Monitoring Post of Fukushima Daini Nuclear Power Station
Date,Time,MP-1(microSv/h),MP-2(microSv/h),MP-3(microSv/h),MP-4(microSv/h),MP-5(microSv/h),MP-6(microSv/h),MP-7(microSv/h),Wind Direction,Wind Velocity(m/s),Rain
2019/05/12,00:00,0.201,0.187,0.307,0.286,0.275,0.152,0.092,northwest,3.9,No
2019/05/12,00:10,0.200,0.187,0.307,0.286,0.275,0.151,0.093,north-northwest,3.6,No
2019/05/12,00:20,0.201,0.187,0.306,0.287,0.276,0.152,0.093,north-northwest,4.4,No
2019/05/12,00:30,0.200,0.188,0.307,0.286,0.276,0.152,0.092,north-northwest,4.4,No
2019/05/12,00:40,0.199,0.188,0.308,0.290,0.275,0.152,0.093,north-northwest,4.6,No
2019/05/12,00:50,0.201,0.189,0.307,0.286,0.276,0.154,0.093,north-northwest,6.0,No
2019/05/12,01:00,0.201,0.188,0.307,0.286,0.276,0.152,0.093,north-northwest,5.7,No
2019/05/12,01:10,0.201,0.189,0.305,0.287,0.275,0.152,0.093,northwest,4.8,No
2019/05/12,01:20,0.200,0.188,0.306,0.286,0.276,0.153,0.092,north-northwest,6.2,No
2019/05/12,01:30,0.201,0.188,0.307,0.287,0.276,0.153,0.093,north-northwest,5.6,No
2019/05/12,01:40,0.201,0.189,0.307,0.288,0.276,0.153,0.093,north-northwest,5.2,No
2019/05/12,01:50,0.202,0.188,0.306,0.288,0.274,0.152,0.093,north-northwest,5.9,No
2019/05/12,02:00,0.201,0.189,0.307,0.288,0.274,0.153,0.093,north-northwest,6.2,No
2019/05/12,02:10,0.201,0.189,0.308,0.288,0.277,0.153,0.094,north-northwest,5.9,No
2019/05/12,02:20,0.200,0.188,0.307,0.289,0.276,0.152,0.093,north,7.3,No
2019/05/12,02:30,0.199,0.188,0.308,0.287,0.274,0.153,0.093,north,8.2,No
2019/05/12,02:40,0.200,0.187,0.307,0.288,0.276,0.153,0.093,north,6.8,No
2019/05/12,02:50,0.200,0.189,0.306,0.287,0.274,0.153,0.093,north,7.3,No
2019/05/12,03:00,0.200,0.188,0.308,0.287,0.274,0.153,0.093,north,6.5,No
2019/05/12,03:10,0.201,0.189,0.306,0.288,0.275,0.152,0.094,north,6.2,No
2019/05/12,03:20,0.201,0.188,0.308,0.286,0.274,0.151,0.092,north-northwest,6.2,No
2019/05/12,03:30,0.200,0.187,0.307,0.288,0.275,0.153,0.093,north-northwest,7.3,No
2019/05/12,03:40,0.201,0.189,0.307,0.288,0.275,0.153,0.093,north-northwest,8.1,No
2019/05/12,03:50,0.201,0.189,0.308,0.288,0.276,0.152,0.093,northwest,8.4,No
2019/05/12,04:00,0.201,0.188,0.307,0.286,0.274,0.152,0.094,northwest,8.2,No
2019/05/12,04:10,0.201,0.188,0.307,0.288,0.274,0.153,0.094,northwest,8.1,No
2019/05/12,04:20,0.202,0.188,0.308,0.287,0.275,0.152,0.093,north-northwest,7.6,No
2019/05/12,04:30,0.201,0.187,0.307,0.286,0.275,0.152,0.093,north-northwest,7.1,No
2019/05/12,04:40,0.201,0.189,0.307,0.288,0.274,0.152,0.093,north-northwest,7.0,No
2019/05/12,04:50,0.201,0.187,0.306,0.287,0.275,0.152,0.093,north-northwest,6.8,No
2019/05/12,05:00,0.201,0.188,0.308,0.287,0.274,0.152,0.093,north-northwest,6.5,No
2019/05/12,05:10,0.200,0.189,0.307,0.287,0.274,0.152,0.093,north-northwest,6.4,No
2019/05/12,05:20,0.201,0.188,0.306,0.287,0.273,0.153,0.093,north-northwest,6.6,No
2019/05/12,05:30,0.200,0.186,0.307,0.285,0.273,0.151,0.093,north-northwest,6.7,No
2019/05/12,05:40,0.200,0.188,0.306,0.287,0.274,0.153,0.093,north-northwest,6.6,No
2019/05/12,05:50,0.201,0.188,0.306,0.289,0.274,0.152,0.092,north-northwest,6.6,No
2019/05/12,06:00,0.201,0.188,0.308,0.288,0.274,0.151,0.092,north-northwest,5.9,No
2019/05/12,06:10,0.199,0.189,0.305,0.287,0.276,0.152,0.092,north-northwest,5.1,No
2019/05/12,06:20,0.200,0.187,0.305,0.287,0.274,0.152,0.093,north-northwest,5.3,No
2019/05/12,06:30,0.200,0.186,0.307,0.287,0.273,0.152,0.092,north-northwest,5.2,No
2019/05/12,06:40,0.201,0.187,0.306,0.287,0.275,0.152,0.093,north,4.8,No
2019/05/12,06:50,0.201,0.186,0.305,0.288,0.274,0.153,0.093,north,4.8,No
2019/05/12,07:00,0.200,0.188,0.307,0.285,0.275,0.151,0.092,north,4.4,No
2019/05/12,07:10,0.200,0.187,0.303,0.287,0.275,0.151,0.093,north,5.9,No
2019/05/12,07:20,0.200,0.187,0.305,0.284,0.273,0.152,0.093,north,5.6,No
2019/05/12,07:30,0.199,0.187,0.303,0.287,0.276,0.151,0.093,north-northeast,6.2,No
2019/05/12,07:40,0.201,0.187,0.307,0.285,0.274,0.152,0.092,north,4.8,No
2019/05/12,07:50,0.199,0.188,0.304,0.286,0.275,0.151,0.094,north,5.1,No
2019/05/12,08:00,0.199,0.187,0.306,0.284,0.272,0.151,0.092,north-northeast,5.6,No
2019/05/12,08:10,0.199,0.188,0.304,0.284,0.275,0.151,0.093,north,5.2,No
2019/05/12,08:20,0.199,0.187,0.306,0.286,0.274,0.152,0.093,north,4.5,No
2019/05/12,08:30,0.201,0.188,0.307,0.283,0.275,0.152,0.092,north,5.2,No
2019/05/12,08:40,0.199,0.187,0.306,0.287,0.273,0.151,0.092,north-northeast,6.0,No
2019/05/12,08:50,0.199,0.187,0.307,0.284,0.276,0.151,0.093,north-northeast,6.4,No
2019/05/12,09:00,0.199,0.186,0.306,0.284,0.273,0.152,0.092,north-northeast,7.1,No
2019/05/12,09:10,0.201,0.187,0.308,0.287,0.276,0.151,0.092,north-northeast,4.8,No
2019/05/12,09:20,0.199,0.187,0.305,0.284,0.272,0.152,0.093,north-northeast,5.7,No
2019/05/12,09:30,0.200,0.187,0.306,0.286,0.275,0.151,0.092,north-northeast,5.2,No
2019/05/12,09:40,0.200,0.186,0.307,0.286,0.274,0.151,0.092,north-northeast,5.1,No
2019/05/12,09:50,0.200,0.188,0.305,0.284,0.274,0.152,0.092,northeast,4.4,No
2019/05/12,10:00,0.199,0.187,0.306,0.286,0.275,0.151,0.093,north-northeast,4.9,No
2019/05/12,10:10,0.200,0.187,0.305,0.287,0.274,0.152,0.092,northeast,4.8,No
2019/05/12,10:20,0.199,0.188,0.308,0.285,0.276,0.150,0.092,northeast,4.9,No
2019/05/12,10:30,0.200,0.188,0.305,0.287,0.273,0.151,0.093,northeast,3.9,No
2019/05/12,10:40,0.201,0.188,0.305,0.286,0.274,0.151,0.092,north-northeast,4.6,No
2019/05/12,10:50,0.201,0.188,0.305,0.284,0.275,0.151,0.093,north-northeast,4.8,No
2019/05/12,11:00,0.200,0.187,0.303,0.286,0.273,0.152,0.093,north-northeast,4.0,No
2019/05/12,11:10,0.200,0.187,0.306,0.287,0.277,0.152,0.092,north-northeast,3.6,No
2019/05/12,11:20,0.200,0.188,0.303,0.285,0.273,0.151,0.092,north-northeast,4.0,No
2019/05/12,11:30,0.200,0.188,0.306,0.286,0.276,0.152,0.092,north-northeast,4.4,No
2019/05/12,11:40,0.199,0.187,0.307,0.287,0.274,0.151,0.092,north-northeast,4.1,No
2019/05/12,11:50,0.200,0.188,0.305,0.286,0.273,0.152,0.093,north-northeast,5.2,No
2019/05/12,12:00,0.200,0.187,0.308,0.286,0.277,0.151,0.093,north-northeast,3.9,No
2019/05/12,12:10,0.200,0.187,0.305,0.288,0.274,0.152,0.092,northeast,4.6,No
2019/05/12,12:20,0.199,0.186,0.306,0.286,0.275,0.152,0.093,northeast,3.9,No
2019/05/12,12:30,0.200,0.188,0.306,0.287,0.275,0.151,0.093,northeast,3.7,No
2019/05/12,12:40,0.199,0.188,0.304,0.289,0.275,0.152,0.093,northeast,4.5,No
2019/05/12,12:50,0.201,0.188,0.307,0.286,0.277,0.152,0.092,northeast,2.9,No
2019/05/12,13:00,0.200,0.187,0.307,0.284,0.272,0.152,0.093,northeast,3.4,No
2019/05/12,13:10,0.201,0.189,0.304,0.289,0.276,0.152,0.093,northeast,3.4,No
2019/05/12,13:20,0.200,0.187,0.308,0.287,0.274,0.151,0.094,northeast,2.5,No
2019/05/12,13:30,0.201,0.188,0.306,0.284,0.274,0.153,0.092,northeast,3.5,No
2019/05/12,13:40,0.200,0.188,0.304,0.289,0.274,0.152,0.093,northeast,2.3,No
2019/05/12,13:50,0.200,0.187,0.306,0.286,0.273,0.151,0.092,north-northeast,2.5,No
2019/05/12,14:00,0.200,0.188,0.306,0.286,0.275,0.152,0.093,east-northeast,2.4,No
2019/05/12,14:10,0.200,0.190,0.305,0.289,0.276,0.152,0.093,northeast,2.5,No
2019/05/12,14:20,0.201,0.187,0.309,0.288,0.273,0.154,0.094,east-northeast,2.1,No
2019/05/12,14:30,0.199,0.189,0.305,0.284,0.276,0.151,0.093,east-northeast,3.4,No
2019/05/12,14:40,0.201,0.187,0.304,0.289,0.273,0.151,0.093,east,2.3,No
2019/05/12,14:50,0.200,0.189,0.308,0.287,0.273,0.152,0.092,east-northeast,2.5,No
2019/05/12,15:00,0.201,0.188,0.305,0.290,0.274,0.151,0.092,east-northeast,2.5,No
2019/05/12,15:10,0.200,0.189,0.307,0.289,0.273,0.152,0.092,east-northeast,3.1,No
2019/05/12,15:20,0.201,0.188,0.307,0.290,0.275,0.152,0.094,northeast,2.4,No
2019/05/12,15:30,0.201,0.189,0.306,0.288,0.275,0.153,0.092,north-northeast,2.9,No
2019/05/12,15:40,0.199,0.187,0.308,0.290,0.273,0.152,0.093,east-northeast,2.7,No
2019/05/12,15:50,0.200,0.190,0.308,0.288,0.277,0.152,0.093,east,1.7,No
2019/05/12,16:00,0.200,0.189,0.308,0.289,0.274,0.152,0.093,east-northeast,2.8,No
2019/05/12,16:10,0.201,0.189,0.310,0.288,0.274,0.152,0.094,east,1.8,No
2019/05/12,16:20,0.200,0.190,0.306,0.289,0.275,0.151,0.093,east,2.0,No
2019/05/12,16:30,0.201,0.188,0.309,0.288,0.273,0.152,0.094,east,3.0,No
2019/05/12,16:40,0.200,0.189,0.307,0.288,0.277,0.152,0.093,east-northeast,1.9,No
2019/05/12,16:50,0.200,0.189,0.309,0.289,0.275,0.152,0.093,east,1.8,No
2019/05/12,17:00,0.201,0.187,0.308,0.288,0.275,0.153,0.094,east-northeast,1.3,No
2019/05/12,17:10,0.202,0.188,0.307,0.289,0.275,0.153,0.093,northeast,2.3,No
2019/05/12,17:20,0.200,0.189,0.309,0.290,0.275,0.154,0.092,east-northeast,1.9,No
2019/05/12,17:30,0.200,0.188,0.307,0.288,0.276,0.153,0.093,east-northeast,1.5,No
2019/05/12,17:40,0.200,0.189,0.308,0.288,0.276,0.153,0.093,northeast,1.5,No
2019/05/12,17:50,0.202,0.189,0.309,0.289,0.276,0.153,0.093,north-northeast,2.0,No
2019/05/12,18:00,0.200,0.190,0.307,0.288,0.277,0.152,0.093,north-northeast,2.1,No
2019/05/12,18:10,0.200,0.188,0.307,0.289,0.275,0.154,0.093,north,1.1,No
2019/05/12,18:20,0.202,0.189,0.307,0.288,0.277,0.153,0.093,north,2.2,No
2019/05/12,18:30,0.200,0.188,0.308,0.288,0.275,0.153,0.092,north,1.9,No
2019/05/12,18:40,0.201,0.189,0.308,0.289,0.276,0.152,0.092,north,2.6,No
2019/05/12,18:50,0.202,0.189,0.308,0.289,0.275,0.154,0.093,north-northwest,1.6,No
2019/05/12,19:00,0.201,0.189,0.307,0.288,0.274,0.153,0.093,north-northwest,1.6,No
2019/05/12,19:10,0.201,0.189,0.308,0.289,0.277,0.153,0.093,north-northwest,1.5,No
2019/05/12,19:20,0.200,0.189,0.306,0.288,0.275,0.153,0.093,north,1.9,No
2019/05/12,19:30,0.200,0.188,0.307,0.288,0.275,0.153,0.093,north-northwest,1.4,No
2019/05/12,19:40,0.202,0.189,0.309,0.288,0.275,0.153,0.093,north-northwest,3.3,No
2019/05/12,19:50,0.201,0.189,0.306,0.289,0.276,0.152,0.093,north-northwest,4.1,No
2019/05/12,20:00,0.201,0.188,0.307,0.289,0.275,0.153,0.093,north-northwest,4.1,No
2019/05/12,20:10,0.202,0.189,0.309,0.289,0.274,0.152,0.093,north-northwest,3.6,No
2019/05/12,20:20,0.200,0.188,0.307,0.288,0.275,0.153,0.093,north-northwest,4.5,No
2019/05/12,20:30,0.201,0.188,0.308,0.288,0.274,0.153,0.094,north-northwest,4.3,No
2019/05/12,20:40,0.201,0.190,0.308,0.290,0.275,0.153,0.092,north-northwest,4.5,No
2019/05/12,20:50,0.201,0.190,0.309,0.288,0.275,0.153,0.094,north-northwest,4.4,No
2019/05/12,21:00,0.201,0.190,0.309,0.288,0.274,0.152,0.093,north-northwest,4.5,No
2019/05/12,21:10,0.201,0.189,0.309,0.289,0.275,0.154,0.093,north-northwest,4.4,No
2019/05/12,21:20,0.201,0.189,0.307,0.290,0.276,0.153,0.093,north-northwest,4.9,No
2019/05/12,21:30,0.201,0.190,0.308,0.291,0.274,0.152,0.093,north-northwest,4.4,No
2019/05/12,21:40,0.201,0.190,0.309,0.290,0.276,0.153,0.093,north,3.1,No
2019/05/12,21:50,0.202,0.188,0.307,0.289,0.275,0.153,0.092,north,1.3,No
2019/05/12,22:00,0.201,0.190,0.308,0.289,0.274,0.152,0.093,north,3.3,No
2019/05/12,22:10,0.201,0.190,0.308,0.289,0.274,0.153,0.093,north,3.7,No
2019/05/12,22:20,0.202,0.189,0.310,0.289,0.276,0.153,0.093,north,2.7,No
2019/05/12,22:30,0.201,0.190,0.310,0.289,0.275,0.153,0.092,north,2.5,No
2019/05/12,22:40,0.201,0.190,0.309,0.288,0.274,0.153,0.094,north,2.8,No
2019/05/12,22:50,0.203,0.189,0.308,0.288,0.274,0.154,0.094,northwest,3.2,No
2019/05/12,23:00,0.201,0.190,0.308,0.289,0.276,0.151,0.093,northwest,3.2,No
2019/05/12,23:10,0.201,0.189,0.308,0.290,0.273,0.153,0.094,north-northwest,3.0,No
2019/05/12,23:20,0.202,0.188,0.309,0.288,0.275,0.153,0.093,north-northwest,3.0,No
2019/05/12,23:30,0.202,0.188,0.309,0.289,0.275,0.152,0.094,north-northwest,3.1,No
2019/05/12,23:40,0.203,0.189,0.308,0.289,0.276,0.153,0.094,north-northwest,2.5,No
2019/05/12,23:50,0.201,0.189,0.308,0.289,0.274,0.153,0.093,north-northwest,2.2,No
